930  
NZUS01 KOTX 290010  
RWROTX  
 
EASTERN WASHINGTON/NORTHERN IDAHO ROUNDUP  
NATIONAL WEATHER SERVICE, SPOKANE WA  
500 PM PDT SUN MAY 28 2017  
 
NOTE: "FAIR" INDICATED FEW OR NO CLOUDS BELOW 12,000 FEET WITH NO  
SIGNIFICANT WEATHER AND/OR S TO VISIBILITY
.  
   
..NORTHEAST WASHINGTON AND NORTHERN IDAHO PANHANDLE
 
 
 
CITY SKY/WX TMP DP RH WIND PRES REMARKS
 
SPOKANE INTL MOSUNNY 83 37 19 SE6 30.10F  
SPOKANE DOWNTO SUNNY 86 44 23 N3 30.08F  
COEUR D ALENE SUNNY 83 45 26 W3 30.10F  
DEER PARK SUNNY 83 42 23 W7 30.10F  
SANDPOINT MOSUNNY 81 43 26 NE6 30.10F  
BONNERS FERRY FAIR 81 43 26 S5 30.10F  
   
..SOUTHEAST WASHINGTON AND SOUTHERN IDAHO PANHANDLE
 
 
 
CITY SKY/WX TMP DP RH WIND PRES REMARKS
 
WALLA WALLA SUNNY 88 42 20 W7 30.03F  
PULLMAN/MOSCOW SUNNY 81 41 24 N3 30.12F  
LEWISTON SUNNY 89 40 17 E8 30.04F  
LOWELL N/A 83 44 25 S5 30.03F  
GRANGEVILLE FAIR 79 45 29 NE5 30.13F  
   
..COLUMBIA BASIN
 
 
 
CITY SKY/WX TMP DP RH WIND PRES REMARKS
 
EPHRATA SUNNY 89 39 17 VRB3 30.04F  
MOSES LAKE SUNNY 88 41 19 SE5 30.04F  
PASCO SUNNY 92 47 21 VRB5 30.00F  
RICHLAND CLEAR 92 41 16 E7 29.99F  
HERMISTON SUNNY 92 39 15 MISG 29.99F  
PENDLETON SUNNY 85 45 24 N8 30.03F  
   
..EAST SLOPES CASCADES
 
 
 
CITY SKY/WX TMP DP RH WIND PRES REMARKS
 
THE DALLES SUNNY 96 41 15 NE8 29.94F HX 92  
YAKIMA MOSUNNY 92 40 16 S6 30.02F  
ELLENSBURG SUNNY 89 43 20 E6 30.05F  
STAMPEDE PASS PTSUNNY 73 41 31 E3 30.18F  
WENATCHEE SUNNY 87 40 19 CALM 30.03F  
OMAK SUNNY 85 46 25 SW8 30.06F  
SUNNYSIDE CLEAR 87 43 21 CALM 30.01F  
   
..SOUTHERN BRITISH COLUMBIA
 
 
 
CITY SKY/WX TMP DP RH WIND PRES REMARKS
 
PENTICTON MOSUNNY 86 48 26 S14G22 30.00F  
CASTLEGAR MOSUNNY 88 41 19 SW5 30.05F  
CRANBROOK MOSUNNY 81 36 19 N5 30.11F  
OSOYOOS N/A 88 45 22 S8 N/A  
CRESTON N/A 84 48 28 SW3 N/A  
   
..WESTERN MONTANA
 
 
 
CITY SKY/WX TMP DP RH WIND PRES REMARKS
 
KALISPELL PTCLDY 81 41 24 W6 30.12F  
MISSOULA SUNNY 81 36 19 N14 30.13F  
   
..NEIGHBORING CITIES
 
 
 
CITY SKY/WX TMP DP RH WIND PRES REMARKS
 
SEATTLE MOSUNNY 86 48 26 N12 30.03F  
PORTLAND MOSUNNY 85 53 33 W7 29.99F  
BOISE SUNNY 84 33 16 SE8 30.09F  
GREAT FALLS PTSUNNY 71 41 33 CALM 30.21S  
CALGARY MOSUNNY 70 39 32 NE7 30.24S  
 
CLICK HERE TO GO TO PREVIOUS BULLETINS.

The Nexlab WA Page
The Nexlab ID Page Main Text Page